Location: Mundon
(51.6833°N, 0.7167°E)
Time: 11:25:45
(UTC+00:00)

Daily predictions for brighter satellites

Satellite Brightness Start Highest point End
(mag) Time Altitude Azimuth Time Altitude Azimuth Time Altitude Azimuth
SAR-Lupe-2 3.5 18:41:59 10° SSE 18:45:32 75° ENE 18:49:08 10° NNW
Cosmos 1315 Rocket 4.4 18:42:57 10° NNE 18:45:42 18° ENE 18:48:28 10° ESE
Cosmos 1125 Rocket 4.1 18:44:41 10° NNW 18:49:34 39° NE 18:54:26 10° SE
ATLAS 2AS CENTAUR R/B 3.9 18:43:02 10° W 18:49:53 44° NNW 18:56:29 10° NE
Meteor PRIRODA 3.4 18:47:05 10° SSE 18:50:20 58° ENE 18:53:34 10° N
Cosmos 1842 3.5 18:47:43 10° N 18:51:11 42° ENE 18:54:38 10° SSE
USA 59 Rocket 0.2 18:49:03 10° NW 18:52:43 70° SW 18:57:44 10° SE
Cosmos 1536 3.9 18:51:55 10° SE 18:54:56 22° E 18:57:56 10° NE
Cosmos 1707 3.0 18:51:38 10° N 18:55:00 38° ENE 18:58:20 10° SE
Cosmos 1515 Rocket 4.2 18:51:11 10° N 18:55:10 34° ENE 18:59:09 10° SE
Cosmos 2061 Rocket 4.2 18:49:42 10° S 18:56:09 88° W 19:02:39 10° N
COSMOS 2428 2.8 18:50:42 10° S 18:56:14 55° ESE 19:01:50 10° NE
Cosmos 1818 3.6 18:55:44 10° SW 19:01:13 86° SE 19:06:44 10° NE
Okean O Rocket 2.6 18:58:17 10° ESE 19:02:05 28° ENE 19:05:52 10° N
Cosmos 2278 Rocket 2.2 18:59:56 10° NNW 19:05:38 78° ENE 19:11:19 10° SE
DMSP B5D1-3 4.5 19:02:11 10° NNE 19:07:17 80° ESE 19:12:22 10° SSW
USA 306 2.3 19:04:38 10° SW 19:07:41 57° SSE 19:11:16 10° ENE
CZ-4B DEB 4.2 19:04:23 10° SSE 19:09:55 88° ENE 19:15:27 10° NNW
CZ-4 R/B 1.2 19:07:03 10° SSE 19:10:52 75° ENE 19:14:47 10° N
NOSS 2-1 (C) 4.3 19:09:28 10° NW 19:13:04 48° SW 19:17:53 10° SSE
CZ-4B R/B 3.3 19:09:04 10° SE 19:14:25 60° ENE 19:19:42 10° N
Cosmos 1766 Rocket 3.5 19:10:34 10° S 19:14:54 73° E 19:19:19 10° NNE
Meteor 2-17 Rocket 4.4 19:09:02 10° N 19:15:07 72° ENE 19:21:09 10° SSE
Helios 1A 2.9 19:11:58 10° NNE 19:16:01 62° ESE 19:20:01 10° S
USA 290 2.4 19:12:52 10° NNW 19:16:09 74° WSW 19:19:26 10° SSE
Resurs 01 Rocket 1.7 19:12:05 10° SSE 19:16:26 61° ENE 19:20:49 10° N
ADEOS 4.0 19:13:56 10° S 19:19:07 67° WSW 19:24:21 10° NNW
GEOS 3 Rocket 3.8 19:14:26 10° SE 19:19:40 73° SW 19:24:51 10° NW
USA 186 1.7 19:18:29 10° SSE 19:21:41 67° ENE 19:24:55 10° N
CZ-4B R/B 4.0 19:17:16 10° S 19:21:58 60° WSW 19:26:45 10° NNW
KORONAS-FOTON 3.8 19:18:23 10° NNW 19:22:07 81° W 19:25:47 10° S
Cosmos 1814 Rocket 3.9 19:17:18 10° SSW 19:22:35 77° ESE 19:27:50 10° NNE
Cosmos 2360 Rocket 3.9 19:17:34 10° WSW 19:22:42 35° NW 19:27:52 10° NNE
PAYLOAD B 4.3 19:17:26 10° SSE 19:23:02 87° ENE 19:28:42 10° NNW
Cosmos 1743 3.8 19:20:02 10° SSW 19:23:28 45° WNW 19:26:55 10° N
MOS 1-B 4.5 19:18:40 10° SE 19:24:20 59° ENE 19:30:00 10° N
SPOT 5 3.8 19:22:15 15° ESE 19:25:06 27° ENE 19:28:51 10° N
Okean-O 3.6 19:23:05 15° ESE 19:25:51 29° ENE 19:29:39 10° N
SKYMED 3 4.4 19:22:46 10° NNE 19:26:56 87° WNW 19:31:02 10° SSW
USA 267 3.8 19:21:39 10° ENE 19:28:01 57° N 19:34:24 10° WNW
Cosmos 1408 Rocket 4.2 19:25:07 10° SSE 19:29:05 34° E 19:33:05 10° NNE
ISS -2.6 19:26:39 10° SSW 19:29:31 27° SSE 19:30:43 21° ESE
SPOT 1/Viking Rocket 4.2 19:25:12 10° S 19:30:18 57° W 19:35:24 10° NNW
CZ-4B R/B 3.1 19:27:05 10° S 19:30:57 70° WSW 19:35:02 10° NNW
Kosmos-1783 2.4 19:30:15 10° WSW 19:32:20 56° NW 19:33:11 22° NNE
SL-08 R/B 3.6 19:27:38 10° NNE 19:32:35 76° WNW 19:37:30 10° SSW
Cosmos 2237 Rocket 2.4 19:29:57 10° S 19:35:17 46° ESE 19:40:39 10° NE
Cosmos 2322 Rocket 4.4 19:30:35 10° W 19:35:23 27° NW 19:40:13 10° NNE
Aureole 3 Rocket 4.2 19:32:10 10° SSE 19:38:06 37° E 19:42:33 10° NNE
CSL-04 Rocket 3.6 19:32:51 10° SSE 19:38:12 80° ENE 19:43:32 10° NNW
Cosmos 1674 4.3 19:36:49 10° NNW 19:39:48 30° W 19:42:44 10° SSW
Cosmos 2219 Rocket 3.5 19:34:35 10° WSW 19:40:00 43° NW 19:45:25 10° NNE
Cosmos 1356 Rocket 3.8 19:37:55 10° NNW 19:42:05 66° W 19:46:13 10° S
Lacrosse 4 Rocket 4.2 19:41:03 10° WNW 19:43:44 16° WSW 19:46:24 10° SW
Meteor 1-14 Rocket 4.2 19:38:34 10° SSW 19:44:06 85° WNW 19:49:42 10° NNE
Meteor 1-4 Rocket 4.0 19:42:47 10° NW 19:45:06 26° W 19:47:24 10° SSW
Meteor 1-11 Rocket 3.7 19:41:39 10° S 19:47:08 58° E 19:52:34 10° NNE
MOS 1 Rocket 4.2 19:45:38 22° ESE 19:48:23 37° ENE 19:53:15 10° N
SeaSat 1 4.4 19:46:48 10° NNE 19:51:06 31° NW 19:55:22 10° WSW
CARTOSAT-1 3.9 19:47:15 10° S 19:51:28 64° WSW 19:55:43 10° NNW
ATLAS CENTAUR R/B 1.4 19:48:45 10° SSW 19:52:05 38° ESE 19:54:53 14° ENE
Cosmos 158 Rocket 4.0 19:47:34 10° S 19:52:14 48° ESE 19:56:55 10° NE
NOSS 3-4 (A) 4.1 19:45:57 10° NW 19:52:16 52° NNE 19:57:11 21° ESE
NOSS 3-4 (C) 4.1 19:46:03 10° NW 19:52:23 52° NNE 19:57:17 21° ESE
Cosmos 1805 Rocket 3.9 19:52:47 21° SSE 19:55:10 40° E 19:59:15 10° NNE
Cosmos 1428 Rocket 4.4 19:51:05 10° N 19:57:13 69° ENE 20:02:18 15° SSE
Cosmos 2333 Rocket 4.5 19:53:57 10° W 19:58:43 26° NW 20:03:29 10° NNE
Cosmos 1733 2.9 19:55:58 10° S 19:59:24 86° W 20:02:52 10° N
In-Cosmos 22 4.4 19:54:13 10° NNW 19:59:57 77° W 20:05:31 10° S
USA 276 3.7 19:58:06 10° W 20:00:16 20° SSW 20:00:38 19° SSW
Cosmos 2369 Rocket 3.0 19:57:15 10° NNW 20:02:35 38° NE 20:05:12 25° E
Cosmos 1980 3.6 19:59:05 10° SSW 20:04:45 78° ESE 20:10:28 10° NNE
SWARM A 4.4 20:03:48 13° S 20:06:53 79° W 20:10:25 10° N
Meteor 1-21 4.4 20:01:49 10° N 20:07:28 54° ENE 20:10:23 28° SE
Cosmos 1943 Rocket 2.7 20:04:17 10° NW 20:09:40 56° WSW 20:14:05 15° S
Sich 1 2.9 20:07:33 21° S 20:10:18 61° E 20:14:35 10° NNE
Cosmos 1707 Rocket 4.3 20:06:20 10° N 20:10:25 34° ENE 20:11:05 32° E
DELTA 2 DEB (DPAF) 4.4 20:07:30 10° NNE 20:11:27 40° E 20:11:47 39° ESE
NOSS 0 Rocket 4.1 20:07:04 10° SW 20:13:19 78° WNW 20:19:37 10° NNE
Cosmos 2298 Rocket 4.0 20:08:14 10° NNW 20:13:35 88° ENE 20:16:27 28° SSE
Nadezhda 4 Rocket 4.3 20:08:19 10° NNW 20:14:33 70° W 20:20:48 10° S
Cosmos 2195 Rocket 4.4 20:08:35 10° N 20:14:44 81° E 20:19:12 20° SSE
Terra 2.4 20:13:52 34° E 20:15:04 40° ENE 20:19:28 10° N
Cosmos 2150 Rocket 3.9 20:10:05 10° NNW 20:15:17 90° SSW 20:17:56 29° SSE
ACS3 Solar Sail 2.0 20:09:35 11° S 20:15:46 81° WSW 20:22:13 10° NNW
ERS-1 Rocket 3.3 20:14:03 34° ESE 20:15:49 49° ENE 20:20:40 10° N
USA 32 3.9 20:10:43 10° N 20:15:59 81° E 20:19:24 22° S
Cosmos 1570 Rocket 3.9 20:12:11 10° SSW 20:17:28 86° ESE 20:22:46 10° NNE
Cosmos 1975 3.2 20:18:59 40° ENE 20:18:59 40° ENE 20:22:17 10° NNE
OPS 6432 4.1 20:17:53 10° NW 20:21:05 77° SW 20:21:15 74° S
Cosmos 2026 Rocket 3.9 20:15:48 10° N 20:22:05 79° ENE 20:25:51 25° SSE
Cosmos 1315 Rocket 3.4 20:18:13 10° NNW 20:22:07 54° W 20:24:27 22° SSW
Cosmos 1805 2.9 20:21:37 47° S 20:22:34 78° E 20:26:15 10° NNE
Cosmos 1092 Rocket 4.0 20:16:13 10° N 20:22:34 77° E 20:26:28 25° SSE
Ariane Rocket 3.6 20:24:21 34° E 20:25:25 38° ENE 20:30:05 10° N
Meteor 2-12 Rocket 4.4 20:19:42 10° N 20:25:53 70° ENE 20:28:56 31° SSE
Cosmos 836 Rocket 4.4 20:22:44 10° SSW 20:28:00 73° ESE 20:33:18 10° NNE
IRS-1A Rocket 4.3 20:26:28 34° SE 20:29:04 71° ENE 20:34:44 10° NNW
Cosmos 1536 4.3 20:27:05 10° SW 20:30:37 35° WNW 20:34:12 10° N
Okean 3 3.9 20:28:53 10° N 20:32:44 43° ENE 20:32:44 43° ENE
SL-16 R/B 2.5 20:35:16 43° ESE 20:35:42 43° ESE 20:41:03 10° NE
Okean O Rocket 2.8 20:35:02 16° SSW 20:38:12 41° W 20:42:24 10° NNW
Cosmos 1656 Rocket 3.6 20:33:55 10° NNW 20:39:37 78° ENE 20:41:19 47° SE
SL-14 R/B 3.5 20:36:01 10° NNW 20:39:46 61° W 20:40:36 47° SSW
Cosmos 1634 Rocket 3.9 20:36:32 28° SSE 20:39:59 67° E 20:46:17 10° NNE
USA 306 2.7 20:36:56 10° W 20:40:19 62° N 20:40:35 60° NNE
COSMOS 2428 4.3 20:35:31 10° WSW 20:40:45 36° NW 20:46:03 10° NNE
USA 59 Rocket 2.9 20:40:19 10° W 20:41:58 12° WSW 20:43:47 10° SW
ATLAS 2AS CENTAUR R/B 4.2 20:36:19 10° WNW 20:42:29 31° N 20:48:25 10° ENE
Okean 2 4.3 20:41:49 10° N 20:44:49 35° NE 20:44:49 35° NE
CZ-4 R/B 4.3 20:44:17 10° WSW 20:45:55 12° W 20:47:33 10° WNW
IRS-1C Rocket 4.0 20:45:02 47° SSE 20:46:39 86° ENE 20:51:57 10° NNW
Cosmos 773 Rocket 3.9 20:45:39 33° S 20:48:01 70° ESE 20:53:19 10° NNE
Cosmos 2278 Rocket 4.3 20:44:55 10° NW 20:49:05 21° W 20:53:15 10° SSW
Okean 1-7 3.9 20:45:15 10° N 20:48:39 35° NE 20:48:39 35° NE
Cosmos 839 Rocket 4.5 20:41:22 10° SW 20:49:46 82° NW 20:56:32 10° NE
Cosmos 2263 4.4 20:45:05 10° NNW 20:50:45 57° NE 20:51:55 48° E
Cosmos 1500 Rocket 4.3 20:47:41 11° SSW 20:51:41 50° WNW 20:55:56 10° N
Resurs 01 Rocket 4.1 20:50:07 10° SW 20:53:15 19° W 20:56:23 10° NW
Cosmos 2228 Rocket 3.0 20:50:17 10° N 20:54:53 90° W 20:55:20 73° S
Cosmos 1743 Rocket 4.1 20:56:20 28° SW 20:58:23 57° WNW 21:02:41 10° N
SPOT 3 Rocket 3.4 21:00:55 64° ESE 21:01:24 69° ENE 21:06:32 10° N
Okean-O 3.7 21:00:31 29° SW 21:02:06 40° W 21:06:16 10° NNW
SPOT 5 3.6 21:01:23 32° SSW 21:02:58 44° W 21:07:14 10° NNW
Cosmos 2142 Rocket 4.5 21:02:36 54° ESE 21:03:16 57° E 21:09:17 10° NNE
ISS -1.4 21:02:40 10° WSW 21:03:42 18° WSW 21:03:42 18° WSW
NOSS 3-3 (C) 3.7 21:00:51 10° SW 21:06:22 89° WNW 21:13:01 10° NE
USA 267 3.3 21:08:22 43° E 21:10:42 74° NNE 21:17:14 10° WNW
Cosmos 2344 4.5 21:04:20 10° NW 21:11:34 45° NNE 21:17:16 22° E
Cosmos 724 4.2 21:15:31 62° E 21:15:31 62° E 21:20:41 10° NE
Cosmos 2180 Rocket 4.5 21:17:01 61° ESE 21:17:37 64° E 21:23:55 10° NNE
Cosmos 2237 Rocket 3.5 21:14:11 10° WSW 21:19:27 40° NW 21:24:45 10° NNE
NOSS 3-3 (A) 4.0 21:15:04 10° SW 21:20:37 74° NW 21:27:17 10° NE
Cosmos 2279 Rocket 3.9 21:19:59 55° S 21:21:31 87° E 21:27:47 10° N
Cosmos 1607 3.9 21:18:20 10° SW 21:24:49 82° SE 21:31:17 10° NE
Cosmos 2297 4.0 21:22:50 10° NW 21:28:21 57° WSW 21:28:59 54° SW
ATLAS CENTAUR R/B 2.7 21:26:10 10° WSW 21:29:30 33° NW 21:29:51 32° NNW
Spot 2 Rocket 3.8 21:31:07 57° WSW 21:31:24 58° WSW 21:36:24 10° NNW
Cosmos 1633 Rocket 4.0 21:43:08 46° NNW 21:43:08 46° NNW 21:46:28 10° N
NOSS 3-4 (A) 4.0 21:36:46 10° NW 21:43:25 59° SW 21:44:37 53° SSW
NOSS 3-4 (C) 4.0 21:36:53 10° NW 21:43:32 59° SW 21:44:43 53° SSW
Cosmos 2369 Rocket 2.6 21:41:16 10° NW 21:46:48 51° WSW 21:46:58 51° WSW
Terra 3.2 21:52:34 31° W 21:52:44 31° W 21:56:56 10° NNW
ERS-1 Rocket 4.5 21:53:59 27° WSW 21:54:47 28° W 21:59:07 10° NW
ACS3 Solar Sail 4.2 21:56:43 10° WSW 22:00:48 17° W 22:04:55 10° NW
Ariane Rocket 4.1 22:04:29 37° W 22:04:29 37° W 22:09:04 10° NNW
Cosmos 2266 Rocket 4.2 22:03:12 10° NNW 22:09:23 62° W 22:09:40 62° WSW
Cosmos 2056 Rocket 4.4 22:09:52 10° NNW 22:13:50 44° NNE 22:13:50 44° NNE
SL-16 R/B 3.2 22:17:01 25° WSW 22:19:51 42° NW 22:25:16 10° NNE
ATLAS 2AS CENTAUR R/B 3.5 22:28:27 10° NW 22:35:04 44° NNE 22:36:31 39° ENE
Cosmos 1943 4.1 22:41:44 45° NNE 22:41:44 45° NNE 22:45:38 10° NNE
Cosmos 1656 4.5 22:35:16 10° NNW 22:39:42 47° N 22:39:42 47° N
Cosmos 1697 Rocket 3.9 22:47:52 10° NNW 22:52:28 34° NNE 22:52:28 34° NNE
USA 267 3.9 22:55:42 43° W 22:55:42 43° W 23:00:20 10° WNW
ATLAS CENTAUR R/B 4.4 23:09:53 11° NNE 23:09:53 11° NNE 23:10:06 10° NNE
Cosmos 2344 3.8 23:18:43 10° NW 23:26:49 82° SW 23:27:14 80° SSW
Cosmos 1980 Rocket 3.4 23:48:07 10° NNW 23:52:13 38° NNE 23:52:13 38° NNE
